TimeEST,TemperatureF,Dew PointF,Humidity,Sea Level PressureIn,VisibilityMPH,Wind Direction,Wind SpeedMPH,Gust SpeedMPH,PrecipitationIn,Events,Conditions,WindDirDegrees,DateUTC
12:54 AM,32.0,15.1,50,30.04,10.0,SSW,15.0,-,N/A,,Scattered Clouds,210,2013-01-19 05:54:00
1:54 AM,34.0,16.0,48,30.02,10.0,SSW,15.0,21.9,N/A,,Mostly Cloudy,210,2013-01-19 06:54:00
2:54 AM,34.0,15.1,46,30.01,10.0,SSW,13.8,20.7,N/A,,Mostly Cloudy,210,2013-01-19 07:54:00
3:54 AM,35.1,16.0,46,29.99,10.0,SW,9.2,-,N/A,,Overcast,220,2013-01-19 08:54:00
4:54 AM,36.0,18.0,48,29.96,10.0,SSW,10.4,-,N/A,,Overcast,200,2013-01-19 09:54:00
5:54 AM,37.0,19.0,48,29.95,10.0,SSW,11.5,20.7,N/A,,Mostly Cloudy,210,2013-01-19 10:54:00
7:54 AM,39.9,23.0,51,29.94,10.0,SW,17.3,24.2,N/A,,Mostly Cloudy,230,2013-01-19 12:54:00
8:54 AM,39.9,21.9,49,29.94,10.0,SW,19.6,27.6,N/A,,Mostly Cloudy,230,2013-01-19 13:54:00
9:54 AM,42.1,24.1,49,29.96,10.0,WSW,16.1,-,N/A,,Mostly Cloudy,240,2013-01-19 14:54:00
10:54 AM,44.1,25.0,47,29.95,10.0,WSW,21.9,29.9,N/A,,Mostly Cloudy,250,2013-01-19 15:54:00
11:54 AM,46.0,25.0,44,29.93,10.0,West,26.5,34.5,N/A,,Mostly Cloudy,260,2013-01-19 16:54:00
12:54 PM,46.9,26.1,44,29.91,10.0,West,26.5,38.0,N/A,,Mostly Cloudy,260,2013-01-19 17:54:00
1:54 PM,46.0,27.0,47,29.89,10.0,West,21.9,33.4,N/A,,Overcast,260,2013-01-19 18:54:00
2:54 PM,46.9,27.0,46,29.87,10.0,WSW,16.1,-,N/A,,Overcast,240,2013-01-19 19:54:00
3:54 PM,46.0,28.0,50,29.86,10.0,WSW,18.4,25.3,N/A,,Overcast,240,2013-01-19 20:54:00
4:54 PM,44.1,28.0,53,29.83,10.0,SW,6.9,-,N/A,,Overcast,230,2013-01-19 21:54:00
5:54 PM,44.1,27.0,51,29.80,10.0,SSE,5.8,-,N/A,,Overcast,160,2013-01-19 22:54:00
6:54 PM,44.1,27.0,51,29.75,10.0,SSE,6.9,-,N/A,,Overcast,160,2013-01-19 23:54:00
7:54 PM,46.0,27.0,47,29.73,10.0,SSW,9.2,-,N/A,,Overcast,210,2013-01-20 00:54:00
8:54 PM,46.9,23.0,39,29.70,10.0,SSW,13.8,21.9,N/A,,Overcast,210,2013-01-20 01:54:00
9:54 PM,46.9,21.9,37,29.67,10.0,SSW,12.7,23.0,N/A,,Overcast,210,2013-01-20 02:54:00
10:54 PM,48.0,24.1,39,29.65,10.0,SW,15.0,24.2,N/A,,Mostly Cloudy,220,2013-01-20 03:54:00
11:54 PM,48.0,24.1,39,29.60,10.0,SSW,15.0,23.0,N/A,,Partly Cloudy,210,2013-01-20 04:54:00